SOUTH HURON 43NM East of Oscoda, MI (45008)

Conditions for Sunday

Daily
Weekly
Monthly
Marine Data Graph

Current Weather/Wave Observations

Air Temperature: 67° F
Humidity: 80
Wind direction (W Dir): NW (315 - 324 Degrees)
Wind Speed (W Spd): 7.8 kts (8.9 mph)
Wind Gust (W Spd): 7.8 kts (8.9 mph)
Atmospheric Pressure (AP): 29.96 in

Updated: 12:20 PM EDT on July 21, 2019

Marine & Boating Location Search

Enter a coastal zip code for marine weather.

General Information

Location: 44.283 North -82.416 West
Buoy Type: 3-meter foam buoy
Buoy Hull: 3DV13
Payload: AMPS payload
Owned by: NDBC
Windspeed: Measured by obtained from anemometer
Sea Surface: Measured by Intake

Weather and Wave Data

Time Temp Humidity Wind Dominant Wave Wind Wave Pressure
  Air
(°F)
Water
(°F)
  Dir Speed
(kts)
Speed
(mph)
Period
(sec)
Height
(ft)
Range
(ft)
Period
(sec)
Height
(ft)
Range
(ft)
Atmo.
(in)
Tend.
(in)
20:10 67 65 100 South 3.9 4.5 - - - 29.77 -
20:20 67 65 100 SSE 7.8 8.9 - - - 29.77 -
20:30 67
-
100 South 7.8 8.9 - - - 29.78 -
20:50 67 65 100 South 9.7 11.2 0.66 exactly 0.7 - - - 29.75 -
21:10 67 65 100 SSE 11.7 13.4 - - - 29.72 -
21:20 67 65 100 SSE 9.7 11.2 - - - 29.75 -
21:40 68 65 98 SW 5.8 6.7 - - - 29.79 -
21:50 68 65 99 SW 7.8 8.9 0.66 exactly 0.7 - - - 29.80 -
22:10 67 65 100 SW 7.8 8.9 - - - 29.80 -
22:20 67 65 100 SSW 5.8 6.7 - - - 29.81 -
22:40 68 65 98 SSW 7.8 8.9 - - - 29.80 -
22:50 68 65 98 SW 7.8 8.9 3 0.98 exactly 1.0 3 1.64 0.82 - 2.46 29.81 -
23:00 68 65 98 SW 7.8 8.9 - - - 29.81 -
23:10 68 65 99 SW 7.8 8.9 - - - 29.82 -
23:20 69 65 98 WSW 11.7 13.4 - - - 29.82 -
23:40 68 65 98 WNW 5.8 6.7 - - - 29.83 -
00:10 67 65 100 West 1.9 2.2 - - - 29.84 -
00:20 67 65 100 WNW 1.9 2.2 - - - 29.85 -
00:30 67 65 100 WNW 3.9 4.5 - - - 29.85 -
00:40 67 65 100 North 3.9 4.5 - - - 29.85 -
00:50 67 65 100 North 3.9 4.5 3 1.31 exactly 1.3 3 1.64 0.82 - 2.46 29.86 -
01:10 67 65 100 NNW 3.9 4.5 - - - 29.86 -
01:20 67 65 100 NNW 5.8 6.7 - - - 29.86 -
01:30 67 65 99 NNW 5.8 6.7 - - - 29.86 -
01:40 67 65 98 NW 5.8 6.7 - - - 29.87 -
02:00 66
-
100 WNW 5.8 6.7 - - - 29.88 -
02:10 67 65 98 WNW 5.8 6.7 - - - 29.87 -
02:40 67 65 99 West 3.9 4.5 - - - 29.86 -
02:50 67 65 99 West 3.9 4.5 3 0.98 exactly 1.0 3 1.64 0.82 - 2.46 29.87 -
03:10 66 65 100 West 5.8 6.7 - - - 29.87 -
03:20 66 65 100 West 5.8 6.7 - - - 29.88 -
03:30 67 65 98 WNW 7.8 8.9 - - - 29.88 -
03:40 67 65 98 WNW 7.8 8.9 - - - 29.89 -
03:50 68 65 94 WNW 9.7 11.2 3 1.31 exactly 1.3 3 1.64 0.82 - 2.46 29.88 -
04:00 68
-
93 WNW 11.7 13.4 - - - 29.88 -
04:10 67 65 95 NW 9.7 11.2 - - - 29.88 -
04:20 67 65 92 NW 13.6 15.7 - - - 29.87 -
04:30 67 65 89 NW 13.6 15.7 - - - 29.86 -
04:50 67 65 89 NW 11.7 13.4 3 1.31 exactly 1.3 3 1.64 0.82 - 2.46 29.87 -
05:20 67 65 83 NW 11.7 13.4 - - - 29.87 -
05:30 67 65 82 NW 11.7 13.4 - - - 29.88 -
05:40 67 65 83 NW 11.7 13.4 - - - 29.89 -
05:50 67 65 83 NW 11.7 13.4 3 1.31 exactly 1.3 3 1.64 0.82 - 2.46 29.89 -
06:10 67 65 83 NW 11.7 13.4 - - - 29.90 -
06:30 67 65 82 NW 11.7 13.4 - - - 29.91 -
07:10 67 65 85 NW 7.8 8.9 - - - 29.92 -
07:20 67 65 86 NW 9.7 11.2 - - - 29.93 -
07:40 66 65 90 NW 9.7 11.2 - - - 29.94 -
08:20 67 65 87 NW 9.7 11.2 - - - 29.96 -
08:30 67 65 87 NW 9.7 11.2 - - - 29.96 -
08:40 67 65 86 NW 7.8 8.9 - - - 29.95 -
08:50 67 65 86 NW 7.8 8.9 4 1.31 exactly 1.3 4 1.64 0.82 - 2.46 29.94 -
09:10 66 65 89 NW 7.8 8.9 - - - 29.94 -
09:20 66 64 90 NW 7.8 8.9 - - - 29.95 -
09:30 66 64 90 WNW 5.8 6.7 - - - 29.94 -
09:40 66 64 90 NW 7.8 8.9 - - - 29.94 -
09:50 66 64 90 WNW 7.8 8.9 4 1.31 exactly 1.3 4 1.64 0.82 - 2.46 29.94 -
10:10 66 64 92 WNW 5.8 6.7 - - - 29.94 -
10:20 66 64 92 WNW 7.8 8.9 - - - 29.94 -
10:50 66 64 92 NW 7.8 8.9 4 1.31 exactly 1.3 4 1.64 0.82 - 2.46 29.95 -
11:00 66 64 90 NW 9.7 11.2 - - - 29.95 -
11:10 66 64 89 NW 9.7 11.2 - - - 29.95 -
11:20 66 65 88 NW 9.7 11.2 - - - 29.95 -
11:30 66 65 87 NW 9.7 11.2 - - - 29.96 -
11:40 67 65 83 NW 9.7 11.2 - - - 29.96 -
11:50 67 65 81 NW 7.8 8.9 4 0.98 exactly 1.0 4 1.64 0.82 - 2.46 29.96 -
12:00 67 65 81 NW 7.8 8.9 - - - 29.96 -
12:10 67 65 80 NW 7.8 8.9 - - - 29.96 -
12:20 67 65 80 NW 7.8 8.9 - - - 29.96 -

Detailed Wave Spectra

Time Water Depth Wave Height Spectral Peak Period Average Wave Period Sampling Interval Wave Record
20:00 177 ft 0.89 ft 2.9 sec 2.9 sec 0.6 sec 2400 sec
22:00 177 ft 0.69 ft 2.6 sec 0.6 sec 2400 sec
00:00 177 ft 1.25 ft 3.3 sec 2.9 sec 0.6 sec 2400 sec
01:00 177 ft 1.31 ft 2.9 sec 2.9 sec 0.6 sec 2400 sec
03:00 177 ft 1.08 ft 3.4 sec 3.1 sec 0.6 sec 2400 sec
05:00 177 ft 1.25 ft 3.2 sec 2.9 sec 0.6 sec 2400 sec
06:00 177 ft 1.25 ft 2.7 sec 2.8 sec 0.6 sec 2400 sec
08:00 177 ft 1.41 ft 3.4 sec 3.0 sec 0.6 sec 2400 sec
09:00 177 ft 1.44 ft 3.8 sec 3.0 sec 0.6 sec 2400 sec
10:00 177 ft 1.48 ft 3.7 sec 3.2 sec 0.6 sec 2400 sec